Вернуться в каталог

STARLINK-6043

АктивенСвязьVLEO
NORAD 56464·PAYLOAD·🇺🇸 United States

Запущен May 10, 2023 с Vandenberg Space Force Base

Loading…

Ближайшие Пролёты (ближайшие 24 часа)

TLE

СвежийSource: CelesTrak SupGP

Эпоха: Sep 15, 2026, 01:59 UTC

1 56464C 23064S   26258.08312500 -.00018054  00000+0 -15133-2 0  2584
2 56464  70.0033  26.8447 0003189 269.9822 225.0837 14.98331993    18

Отслеживайте STARLINK-6043 в реальном времени с AllMySat

Download on the App Store